Find Jilin-1 Gaofen 02F

NORAD ID: 49338 Int'l Des: 2021-097 Owner: CGSTL Country: CN Constellation: jilin-1 operational
LEOCIRCULARRETROGRADESSO

リアルタイム位置

3D地球を読み込み中...

Jilin-1 Gaofen 02Fについて

説明を読み込み中...

次回通過

Passes for default location (London). Set your location on the main map for personalized predictions.

高度履歴

Loading altitude history...

軌道要素

1 49338U 21097A 26121.50778714 .00005038 00000-0 33543-3 0 9994
2 49338 97.6630 247.8548 0019233 30.0447 330.1880 15.07430021249285
Epoch: May 1, 2026 • Age: 11 hours

現在のステータス

高度 555.6 km
速度 7.58 km/s
衛星直下点 -41.73°S, 47.98°E
打ち上げ日 Oct 27, 2021
運用期間 4.5 years
タイプ earth observation

技術仕様

分類 Payload
質量 230.00 kg
乾燥質量 230.00 kg
総質量 230.00 kg
長さ 1.10 m
直径 0.50 m
スパン 3.00 m
形状 Box+pan
製造者 CGSTL
バスタイプ JL-1
フェーズステータス In Orbit
所有者/国 CGSTL/CN

Most Searched